Location: Ariel
(45.9570°N, 122.5700°W)
Time: 01:32:41
(UTC-07:00)

Vanguard 3 - Pass Details

Date: 27 August 2019
Orbit: 508 x 3262 km, 33.3° (Epoch: 17 October)

Event Time Altitude Azimuth Distance (km) Brightness Sun altitude
Rises 20:24:57 0° 260° (W) 4,052 11.9 -5.3°
Reaches altitude 10° 20:29:23 10° 240° (WSW) 2,579 10.3 -6.0°
Maximum altitude 20:32:37 15° 205° (SSW) 1,912 9.1 -6.5°
Drops below altitude 10° 20:35:16 10° 169° (S) 2,013 8.9 -7.0°
Enters shadow 20:37:14 - 150° (SSE) 2,465 9.2 -7.3°
Sets 20:38:05 0° 144° (SE) 2,721 - -7.4°
